FW0561 Weather Reports


time (UTC)temp
C
wind
direction
speed
KPH
gust
KPH
rain 1hr
cm
rain 24hr
cm
rain mn
cm
humidity
%
barometer
mb
20260510204420 26 215 3.2 17.7 0.00 0.00 0.00 19 1020.6
20260510203832 25 201 6.4 22.5 0.00 0.00 0.00 25 1020.7
20260510203220 24 156 6.4 22.5 0.00 0.00 0.00 26 1020.8
20260510202620 24 165 4.8 16.1 0.00 0.00 0.00 29 1020.8
20260510202019 23 169 4.8 22.5 0.00 0.00 0.00 25 1020.9
20260510201420 23 177 8.0 29.0 0.00 0.00 0.00 28 1021.0
20260510200820 25 155 8.0 19.3 0.00 0.00 0.00 25 1020.8
20260510200220 26 155 0.0 8.0 0.00 0.00 0.00 15 1020.6
20260510195620 25 106 0.0 6.4 0.00 0.00 0.00 15 1020.6
20260510195020 25 133 0.0 16.1 0.00 0.00 0.00 14 1020.6
20260510194420 25 215 4.8 30.6 0.00 0.00 0.00 18 1020.8
20260510193819 26 291 0.0 20.9 0.00 0.00 0.00 15 1020.4
20260510193220 26 351 0.0 12.9 0.00 0.00 0.00 12 1020.6
20260510192619 26 78 0.0 20.9 0.00 0.00 0.00 11 1020.6
20260510192021 25 213 3.2 20.9 0.00 0.00 0.00 14 1020.7
20260510191420 25 101 0.0 14.5 0.00 0.00 0.00 17 1020.6
20260510190820 26 178 3.2 12.9 0.00 0.00 0.00 15 1020.6
20260510190220 26 174 0.0 4.8 0.00 0.00 0.00 16 1020.8
20260510185620 25 139 0.0 6.4 0.00 0.00 0.00 20 1020.9
20260510185032 24 214 3.2 12.9 0.00 0.00 0.00 16 1020.9
20260510184420 25 136 1.6 6.4 0.00 0.00 0.00 23 1021.0
20260510183820 25 159 0.0 6.4 0.00 0.00 0.00 23 1021.0
20260510183220 24 169 0.0 11.3 0.00 0.00 0.00 22 1021.3
20260510182620 24 117 3.2 9.7 0.00 0.00 0.00 21 1021.3
20260510182032 25 52 0.0 1.6 0.00 0.00 0.00 28 1021.4
20260510181420 25 114 0.0 9.7 0.00 0.00 0.00 27 1021.4
20260510180820 25 213 0.0 14.5 0.00 0.00 0.00 26 1021.3
20260510180219 25 343 0.0 19.3 0.00 0.00 0.00 27 1021.3
20260510175620 25 96 4.8 9.7 0.00 0.00 0.00 27 1021.3
20260510175045 25 9 0.0 6.4 0.00 0.00 0.00 28 1021.4
20260510174420 24 313 0.0 6.4 0.00 0.00 0.00 27 1021.6
20260510173832 24 218 0.0 11.3 0.00 0.00 0.00 29 1021.6
20260510173220 25 175 1.6 9.7 0.00 0.00 0.00 28 1021.6
20260510172620 25 123 0.0 11.3 0.00 0.00 0.00 28 1021.6
20260510172020 25 151 0.0 11.3 0.00 0.00 0.00 30 1021.7
20260510171420 24 269 0.0 12.9 0.00 0.00 0.00 32 1021.9
20260510170820 25 109 4.8 11.3 0.00 0.00 0.00 29 1021.9
20260510170219 24 82 0.0 16.1 0.00 0.00 0.00 32 1021.9
20260510165620 23 107 9.7 14.5 0.00 0.00 0.00 32 1022.0
20260510165020 24 78 9.7 17.7 0.00 0.00 0.00 32 1022.0
20260510164419 23 118 6.4 17.7 0.00 0.00 0.00 37 1022.1
20260510163820 23 101 1.6 11.3 0.00 0.00 0.00 38 1022.1
20260510163219 23 0 1.6 11.3 0.00 0.00 0.00 38 1022.1
20260510162620 22 98 1.6 14.5 0.00 0.00 0.00 40 1022.1
20260510162020 22 68 6.4 14.5 0.00 0.00 0.00 43 1022.3
20260510161420 22 72 0.0 12.9 0.00 0.00 0.00 42 1022.3
20260510160844 22 114 4.8 12.9 0.00 0.00 0.00 42 1022.3
20260510160219 22 99 3.2 12.9 0.00 0.00 0.00 47 1022.3
20260510155619 22 93 1.6 19.3 0.00 0.00 0.00 48 1022.4
20260510155020 21 174 4.8 16.1 0.00 0.00 0.00 49 1022.4
20260510154420 21 144 0.0 11.3 0.00 0.00 0.00 51 1022.4
20260510153819 21 171 4.8 9.7 0.00 0.00 0.00 54 1022.4
20260510153220 20 73 4.8 17.7 0.00 0.00 0.00 55 1022.2
20260510152620 20 85 0.0 11.3 0.00 0.00 0.00 56 1022.2
20260510152020 20 124 4.8 12.9 0.00 0.00 0.00 57 1022.3
20260510151420 20 119 3.2 12.9 0.00 0.00 0.00 57 1022.2
20260510150820 20 80 4.8 14.5 0.00 0.00 0.00 60 1022.3
20260510150219 20 84 4.8 11.3 0.00 0.00 0.00 62 1022.4
20260510145619 20 68 1.6 8.0 0.00 0.00 0.00 59 1022.4
20260510145032 19 182 0.0 8.0 0.00 0.00 0.00 57 1022.4
20260510144420 19 100 3.2 4.8 0.00 0.00 0.00 51 1022.4
20260510143820 19 123 0.0 4.8 0.00 0.00 0.00 49 1022.4
20260510143220 18 111 0.0 3.2 0.00 0.00 0.00 51 1022.6
20260510142619 18 99 0.0 4.8 0.00 0.00 0.00 51 1022.6
20260510142020 17 64 0.0 3.2 0.00 0.00 0.00 52 1022.7
20260510141420 17 77 0.0 3.2 0.00 0.00 0.00 53 1022.6
20260510140819 17 27 0.0 4.8 0.00 0.00 0.00 53 1022.6
20260510140219 16 256 0.0 4.8 0.00 0.00 0.00 54 1022.5
20260510135620 16 271 0.0 4.8 0.00 0.00 0.00 54 1022.4
20260510135032 16 308 0.0 6.4 0.00 0.00 0.00 54 1022.4
20260510134419 16 308 0.0 4.8 0.00 0.00 0.00 53 1022.4
20260510133819 16 0 0.0 0.0 0.00 0.00 0.00 54 1022.4
20260510133220 15 310 0.0 4.8 0.00 0.00 0.00 56 1022.4
20260510132632 15 324 3.2 6.4 0.00 0.00 0.00 57 1022.4
20260510132020 15 305 3.2 6.4 0.00 0.00 0.00 58 1022.3
20260510131432 13 284 0.0 6.4 0.00 0.00 0.00 60 1022.3
20260510130845 13 275 0.0 4.8 0.00 0.00 0.00 63 1022.3
20260510130219 12 280 0.0 8.0 0.00 0.00 0.00 65 1022.3
20260510125619 12 317 1.6 9.7 0.00 0.00 0.00 66 1022.1
20260510125020 12 309 3.2 8.0 0.00 0.00 0.00 65 1022.1
20260510124420 11 319 3.2 9.7 0.00 0.00 0.00 67 1022.0
20260510123820 11 308 3.2 8.0 0.00 0.00 0.00 68 1022.0
20260510123220 11 279 0.0 9.7 0.00 0.00 0.00 68 1022.0
20260510122619 10 256 3.2 4.8 0.00 0.00 0.00 68 1021.9
20260510122020 10 294 0.0 6.4 0.00 0.00 0.00 68 1021.8
20260510121419 9 287 3.2 9.7 0.00 0.00 0.00 71 1021.8
20260510120820 9 309 3.2 9.7 0.00 0.00 0.00 72 1021.8
20260510120220 9 285 3.2 6.4 0.00 0.00 0.00 74 1021.8
20260510115619 9 288 1.6 8.0 0.00 0.00 0.00 73 1021.6
20260510115020 8 312 3.2 9.7 0.00 0.00 0.00 74 1021.6
20260510114419 9 295 3.2 11.3 0.00 0.00 0.00 72 1021.5
20260510113819 8 294 6.4 11.3 0.00 0.00 0.00 72 1021.6
20260510113232 8 327 3.2 11.3 0.00 0.00 0.00 72 1021.6
20260510112632 8 324 3.2 9.7 0.00 0.00 0.00 72 1021.5
20260510112019 8 324 3.2 9.7 0.00 0.00 0.00 71 1021.7
20260510111419 8 315 4.8 9.7 0.00 0.00 0.00 69 1021.6
20260510110820 9 297 4.8 9.7 0.00 0.00 0.00 68 1021.6
20260510110220 9 281 4.8 12.9 0.00 0.00 0.00 67 1021.5
20260510105710 9 308 4.8 11.3 0.00 0.00 0.00 64 1021.5
20260510105020 9 276 4.8 11.3 0.00 0.00 0.00 63 1021.5
20260510104419 10 279 3.2 11.3 0.00 0.00 0.00 61 1021.5
20260510103820 10 307 3.2 11.3 0.00 0.00 0.00 62 1021.3
20260510103220 9 284 4.8 11.3 0.00 0.00 0.00 63 1021.3
20260510102620 8 326 4.8 8.0 0.00 0.00 0.00 70 1021.3
20260510102020 8 296 1.6 9.7 0.00 0.00 0.00 69 1021.3
20260510101420 8 263 3.2 8.0 0.00 0.00 0.00 65 1021.2
20260510100820 8 280 1.6 9.7 0.00 0.00 0.00 62 1021.2
20260510100219 8 284 3.2 11.3 0.00 0.00 0.00 62 1021.2
20260510095620 8 292 3.2 9.7 0.00 0.00 0.00 63 1021.2
20260510095019 8 302 3.2 9.7 0.00 0.00 0.00 64 1021.2
20260510094420 8 297 4.8 9.7 0.00 0.00 0.00 64 1021.1
20260510093819 8 290 3.2 9.7 0.00 0.00 0.00 67 1021.2
20260510093219 8 300 4.8 8.0 0.00 0.00 0.00 66 1021.1
20260510092620 8 300 3.2 6.4 0.00 0.00 0.00 64 1021.1
20260510092019 8 294 3.2 8.0 0.00 0.00 0.00 63 1021.1
20260510091420 8 294 3.2 9.7 0.00 0.00 0.00 59 1021.1
20260510090820 8 274 3.2 9.7 0.00 0.00 0.00 57 1021.0
20260510090232 8 264 3.2 8.0 0.00 0.00 0.00 57 1020.9
20260510085619 8 257 3.2 6.4 0.00 0.00 0.00 60 1020.9
20260510085020 8 266 3.2 8.0 0.00 0.00 0.00 61 1020.9
20260510084419 8 308 3.2 9.7 0.00 0.00 0.00 61 1021.0
20260510083819 7 298 4.8 9.7 0.00 0.00 0.00 64 1021.1
20260510083219 8 335 3.2 8.0 0.00 0.00 0.00 60 1021.1
20260510082645 8 272 3.2 6.4 0.00 0.00 0.00 61 1021.1
20260510082019 8 253 0.0 9.7 0.00 0.00 0.00 59 1020.9
20260510081419 8 265 3.2 8.0 0.00 0.00 0.00 61 1020.9
20260510080820 8 297 1.6 4.8 0.00 0.00 0.00 62 1020.9
20260510080220 8 307 1.6 4.8 0.00 0.00 0.00 61 1020.9
20260510075619 8 298 3.2 4.8 0.00 0.00 0.00 62 1020.9
20260510075020 8 248 1.6 6.4 0.00 0.00 0.00 63 1020.9
20260510074419 8 278 3.2 4.8 0.00 0.00 0.00 64 1020.8
20260510073819 8 274 1.6 6.4 0.00 0.00 0.00 68 1020.9
20260510073219 8 271 3.2 4.8 0.00 0.00 0.00 69 1020.9
20260510072619 8 284 1.6 4.8 0.00 0.00 0.00 69 1020.9
20260510072020 8 278 1.6 4.8 0.00 0.00 0.00 74 1020.9
20260510071419 8 287 1.6 4.8 0.00 0.00 0.00 74 1020.8
20260510070821 8 286 3.2 4.8 0.00 0.00 0.00 76 1020.8
20260510070219 8 260 1.6 4.8 0.00 0.00 0.00 74 1020.8
20260510065619 8 233 1.6 4.8 0.00 0.00 0.00 74 1020.8
20260510065020 8 336 0.0 4.8 0.00 0.00 0.00 71 1020.6
20260510064420 8 350 1.6 6.4 0.00 0.00 0.00 72 1020.6
20260510063820 8 4 0.0 6.4 0.00 0.00 0.00 74 1020.8
20260510063219 8 335 0.0 3.2 0.00 0.00 0.00 74 1020.9
20260510062620 8 192 0.0 3.2 0.00 0.00 0.00 71 1020.8
20260510062019 9 133 0.0 4.8 0.00 0.00 0.00 69 1020.8
20260510061444 10 73 0.0 4.8 0.00 0.00 0.00 67 1020.6
20260510060820 9 235 0.0 3.2 0.00 0.00 0.00 65 1020.6
20260510060219 10 0 3.2 3.2 0.00 0.00 0.00 62 1020.5
20260510055619 10 333 0.0 0.0 0.00 0.00 0.00 59 1020.6
20260510055020 11 333 0.0 4.8 0.00 0.00 0.00 56 1020.6
20260510054419 11 327 1.6 4.8 0.00 0.00 0.00 52 1020.5
20260510053819 11 244 0.0 3.2 0.00 0.00 0.00 49 1020.6
20260510053219 11 327 0.0 3.2 0.00 0.00 0.00 47 1020.6
20260510052619 11 0 0.0 3.2 0.00 0.00 0.00 48 1020.6
20260510052019 11 307 0.0 0.0 0.00 0.00 0.00 49 1020.6
20260510051420 11 307 0.0 1.6 0.00 0.00 0.00 48 1020.7
20260510050819 11 306 1.6 6.4 0.00 0.00 0.00 47 1020.7
20260510050219 11 268 0.0 4.8 0.00 0.00 0.00 47 1020.7
20260510045633 11 248 0.0 4.8 0.00 0.00 0.00 47 1020.6
20260510045032 11 272 0.0 3.2 0.00 0.00 0.00 47 1020.7
20260510044420 11 351 0.0 4.8 0.00 0.00 0.00 42 1020.7
20260510043820 11 0 3.2 6.4 0.00 0.00 0.00 44 1020.7
20260510043232 12 141 0.0 3.2 0.00 0.00 0.00 42 1020.7
20260510042619 12 185 0.0 0.0 0.00 0.00 0.00 42 1020.8
20260510042020 13 207 0.0 6.4 0.00 0.00 0.00 39 1020.7
20260510041419 13 253 0.0 4.8 0.00 0.00 0.00 30 1020.7
20260510040820 13 304 0.0 6.4 0.00 0.00 0.00 32 1020.5
20260510040219 13 213 0.0 3.2 0.00 0.00 0.00 33 1020.5
20260510035619 12 223 0.0 0.0 0.00 0.00 0.00 37 1020.4
20260510035019 13 220 0.0 1.6 0.00 0.00 0.00 33 1020.5
20260510034432 15 220 0.0 0.0 0.00 0.00 0.00 29 1020.4
20260510033819 15 220 0.0 4.8 0.00 0.00 0.00 27 1020.4
20260510033220 16 297 3.2 9.7 0.00 0.00 0.00 28 1020.3
20260510032632 16 273 3.2 9.7 0.00 0.00 0.00 27 1020.3
20260510032019 16 277 3.2 11.3 0.00 0.00 0.00 24 1020.3
20260510031420 16 279 3.2 11.3 0.00 0.00 0.00 27 1020.3
20260510030819 17 317 4.8 11.3 0.00 0.00 0.00 25 1020.1
20260510030220 17 297 4.8 14.5 0.00 0.00 0.00 28 1020.1
20260510025620 17 305 3.2 9.7 0.00 0.00 0.00 31 1020.1
20260510025020 18 284 3.2 11.3 0.00 0.00 0.00 31 1020.1
20260510024421 18 324 3.2 12.9 0.00 0.00 0.00 30 1020.1
20260510023819 19 305 4.8 14.5 0.00 0.00 0.00 31 1020.0
20260510023219 20 338 4.8 17.7 0.00 0.00 0.00 30 1019.8
20260510022619 20 301 4.8 16.1 0.00 0.00 0.00 28 1019.8
20260510022020 20 329 4.8 17.7 0.00 0.00 0.00 22 1019.8
20260510021420 20 313 3.2 16.1 0.00 0.00 0.00 21 1019.8
20260510020819 19 316 4.8 17.7 0.00 0.00 0.00 18 1019.6
20260510020219 19 317 3.2 11.3 0.00 0.00 0.00 17 1019.6
20260510015620 19 343 4.8 12.9 0.00 0.00 0.00 18 1019.3
20260510015045 19 322 4.8 12.9 0.00 0.00 0.00 19 1019.3
20260510014419 18 321 3.2 9.7 0.00 0.00 0.00 19 1019.2
20260510013819 19 319 3.2 9.7 0.00 0.00 0.00 21 1019.2
20260510013219 20 316 3.2 11.3 0.00 0.00 0.00 18 1019.0
20260510012632 19 327 3.2 8.0 0.00 0.00 0.00 21 1018.9
20260510012032 19 306 3.2 11.3 0.00 0.00 0.00 22 1018.9
20260510011445 20 303 4.8 11.3 0.00 0.00 0.00 20 1018.7
20260510010820 21 311 3.2 9.7 0.00 0.00 0.00 17 1018.7
20260510010220 22 289 3.2 14.5 0.00 0.00 0.00 17 1018.6
20260510005619 23 285 4.8 19.3 0.00 0.00 0.00 16 1018.6
20260510005019 23 273 3.2 12.9 0.00 0.00 0.00 15 1018.5
20260510004420 24 323 3.2 16.1 0.00 0.00 0.00 14 1018.5
20260510003845 24 320 4.8 12.9 0.00 0.00 0.00 14 1018.4
20260510003220 24 311 6.4 22.5 0.00 0.00 0.00 15 1018.4
20260510002620 24 320 8.0 20.9 0.00 0.00 0.00 15 1018.2
20260510002019 25 321 8.0 22.5 0.00 0.00 0.00 15 1018.2
20260510001420 25 302 4.8 20.9 0.00 0.00 0.00 16 1018.2
20260510000832 26 283 6.4 20.9 0.00 0.00 0.00 16 1018.0
20260510000220 26 330 3.2 20.9 0.00 0.00 0.00 15 1018.0
20260509235619 26 301 6.4 19.3 0.00 0.00 0.00 16 1018.0
20260509235019 26 297 3.2 17.7 0.00 0.00 0.00 17 1018.0
20260509234420 27 285 4.8 16.1 0.00 0.00 0.00 17 1018.0
20260509233819 27 314 4.8 17.7 0.00 0.00 0.00 16 1017.9
20260509233232 27 345 3.2 14.5 0.00 0.00 0.00 16 1017.9
20260509232632 27 334 3.2 19.3 0.00 0.00 0.00 18 1017.9
20260509232019 26 284 4.8 19.3 0.00 0.00 0.00 17 1017.9
20260509231419 26 313 3.2 19.3 0.00 0.00 0.00 18 1017.9
20260509230819 26 302 6.4 19.3 0.00 0.00 0.00 19 1017.9
20260509230219 26 259 6.4 16.1 0.00 0.00 0.00 18 1017.9
20260509225619 26 258 3.2 22.5 0.00 0.00 0.00 19 1017.9
20260509225020 26 307 6.4 22.5 0.00 0.00 0.00 19 1017.8
20260509224431 26 290 6.4 19.3 0.00 0.00 0.00 20 1017.8
20260509223819 27 290 9.7 19.3 0.00 0.00 0.00 20 1017.8
20260509223220 27 279 3.2 25.7 0.00 0.00 0.00 21 1017.8
20260509222619 27 300 8.0 22.5 0.00 0.00 0.00 21 1017.8
20260509222044 27 0 4.8 25.7 0.00 0.00 0.00 21 1017.8
20260509221420 27 298 6.4 20.9 0.00 0.00 0.00 22 1017.8
20260509220832 27 225 6.4 20.9 0.00 0.00 0.00 21 1017.8
20260509220220 27 254 4.8 20.9 0.00 0.00 0.00 23 1017.8
20260509215620 27 281 3.2 14.5 0.00 0.00 0.00 22 1017.8
20260509215019 27 30 0.0 12.9 0.00 0.00 0.00 18 1017.9
20260509214419 26 7 3.2 20.9 0.00 0.00 0.00 19 1017.9
20260509213819 26 37 3.2 14.5 0.00 0.00 0.00 19 1018.0
20260509213219 25 336 0.0 16.1 0.00 0.00 0.00 18 1018.1
20260509212619 25 316 3.2 22.5 0.00 0.00 0.00 20 1018.0
20260509212020 26 331 6.4 27.4 0.00 0.00 0.00 20 1018.0
20260509211419 26 322 4.8 20.9 0.00 0.00 0.00 18 1018.2
20260509210819 26 351 1.6 16.1 0.00 0.00 0.00 18 1018.3
20260509210219 26 341 4.8 8.0 0.00 0.00 0.00 19 1018.3
20260509205619 26 329 0.0 22.5 0.00 0.00 0.00 22 1018.3
20260509205019 25 340 4.8 27.4 0.00 0.00 0.00 24 1018.5